Ketchikan, AK

5:19 PM AKST on February 20, 2019 (GMT -0900)
Ketchikan International

Weather History for PAKT - January, 2019

Change the Weather History Date:

Saturday, January 5, 2019

  Actual Average Record
Temperature  
Mean Temperature 30 °F -  
Max Temperature 32 °F 35 °F 50 °F (2002)
Min Temperature 28 °F 24 °F -1 °F (1965)
Degree Days  
Heating Degree Days 35    
Moisture  
Dew Point 20 °F    
Average Humidity 66    
Maximum Humidity 74    
Minimum Humidity 54    
Precipitation  
Precipitation 0.00 in - - ()
Sea Level Pressure  
Sea Level Pressure 29.50 in    
Wind  
Wind Speed 11 mph (NW)    
Max Wind Speed 16 mph    
Max Gust Speed 24 mph    
Visibility 10 miles    
Events      
Averages and records for this station are not official NWS values.
T = Trace of Precipitation, MM = Missing Value Source: NWS Daily Summary

Daily Weather History Graph

Daily Weather History Graph

Search for Another Location

Airport or City:

Astronomy

Jan. 05, 2019 Rise Set
Actual Time 8:12 AM AKST 3:32 PM AKST
Civil Twilight 7:27 AM AKST 4:17 PM AKST
Nautical Twilight 6:39 AM AKST 5:05 PM AKST
Astronomical Twilight 5:55 AM AKST 5:49 PM AKST
Moon 7:55 AM AKST (1/5) 3:29 PM AKST (1/5)
Length of Visible Light 8h 50m
Length of Day
7h 20m
Waning Crescent, 0% of the Moon is Illuminated
Jan 5
Waning Crescent
Jan 5
New
Jan 13
First Quarter
Jan 20
Full
Jan 27
Last Quarter

Hourly Weather History & Observations

Time (AKST) Temp. Windchill Dew Point Humidity Pressure Visibility Wind Dir Wind Speed Gust Speed Precip Events Conditions
12:53 AM 30.0 °F 21.7 °F 21.9 °F 72% 29.62 in 10.0 mi NW 9.2 mph - N/A   Clear
1:53 AM 30.0 °F 22.4 °F 19.9 °F 66% 29.63 in 10.0 mi WNW 8.1 mph - N/A   Clear
2:53 AM 30.0 °F 22.4 °F 19.9 °F 66% 29.63 in 10.0 mi NW 8.1 mph - N/A   Clear
3:53 AM 30.0 °F 22.4 °F 19.9 °F 66% 29.63 in 10.0 mi NW 8.1 mph - N/A   Clear
4:53 AM 30.0 °F 21.1 °F 21.0 °F 69% 29.61 in 10.0 mi WNW 10.4 mph - N/A   Clear
5:53 AM 30.0 °F 21.1 °F 21.0 °F 69% 29.62 in 10.0 mi NW 10.4 mph - N/A   Overcast
6:10 AM 30.0 °F 22.4 °F 21.0 °F 69% 29.61 in 10.0 mi NW 8.1 mph - N/A   Overcast
6:53 AM 30.2 °F 21.3 °F 21.2 °F 69% 29.60 in 10.0 mi WNW 10.4 mph - N/A   Overcast
7:53 AM 28.9 °F 19.8 °F 21.0 °F 72% 29.59 in 10.0 mi NW 10.4 mph - N/A   Clear
8:53 AM 28.4 °F 18.5 °F 21.2 °F 74% 29.59 in 10.0 mi WNW 11.5 mph - N/A   Clear
9:53 AM 28.9 °F 19.8 °F 21.0 °F 72% 29.58 in 10.0 mi NW 10.4 mph - N/A   Mostly Cloudy
10:53 AM 30.2 °F 20.2 °F 21.2 °F 69% 29.55 in 10.0 mi NW 12.7 mph - N/A   Partly Cloudy
11:53 AM 30.2 °F 20.8 °F 21.2 °F 69% 29.53 in 10.0 mi NW 11.5 mph - N/A   Mostly Cloudy
12:53 PM 32.0 °F 23.0 °F 21.2 °F 64% 29.50 in 10.0 mi WNW 11.5 mph 19.6 mph N/A   Overcast
1:53 PM 32.0 °F 22.5 °F 21.2 °F 64% 29.49 in 10.0 mi NW 12.7 mph - N/A   Mostly Cloudy
2:53 PM 32.0 °F 23.6 °F 21.2 °F 64% 29.46 in 10.0 mi WNW 10.4 mph 19.6 mph N/A   Mostly Cloudy
3:53 PM 30.2 °F 20.8 °F 21.2 °F 69% 29.43 in 10.0 mi NW 11.5 mph - N/A   Mostly Cloudy
4:53 PM 30.9 °F 19.8 °F 19.9 °F 64% 29.42 in 10.0 mi NW 16.1 mph 23.0 mph N/A   Scattered Clouds
5:53 PM 30.9 °F 21.2 °F 19.9 °F 64% 29.39 in 10.0 mi NW 12.7 mph - N/A   Clear
6:53 PM 30.9 °F 19.8 °F 19.0 °F 61% 29.37 in 10.0 mi NW 16.1 mph 24.2 mph N/A   Clear
7:53 PM 30.9 °F 19.8 °F 18.0 °F 59% 29.35 in 10.0 mi NW 16.1 mph 21.9 mph N/A   Clear
8:53 PM 30.0 °F 20.0 °F 17.1 °F 59% 29.34 in 10.0 mi NW 12.7 mph 20.7 mph N/A   Clear
9:53 PM 30.0 °F 19.1 °F 17.1 °F 59% 29.32 in 10.0 mi NW 15.0 mph - N/A   Clear
10:53 PM 30.0 °F 19.5 °F 16.0 °F 56% 29.30 in 10.0 mi NW 13.8 mph 24.2 mph N/A   Clear
11:53 PM 28.9 °F 18.2 °F 14.0 °F 54% 29.28 in 10.0 mi NW 13.8 mph 24.2 mph N/A   Clear